Location: Devore Heights
(34.2372°N, 117.4156°W)
Time: 04:02:33
(UTC+00:00)

S-56A Canister/Altair - Pass Details

Date: 19 September 2024
Orbit: 636 x 2487 km, 38.9° (Epoch: 05 October)

Event Time Altitude Azimuth Distance (km) Brightness Sun altitude
Rises 01:35:10 0° 257° (WSW) 2,981 12.7 2.5°
Reaches altitude 10° 01:37:16 10° 260° (W) 2,146 11.9 2.0°
Maximum altitude 01:42:06 73° 345° (NNW) 861 7.9 1.0°
Drops below altitude 10° 01:48:49 10° 70° (ENE) 2,943 9.9 -0.4°
Sets 01:52:09 0° 72° (ENE) 4,195 10.7 -1.1°
